EW5449 Weather Reports


Display with metric or nautical units.
time (UTC)temp
F
wind
direction
speed
MPH
gust
MPH
rain 1hr
in
rain 24hr
in
rain mn
in
humidity
%
barometer
mb
20260505203107 81 221 3.0 12.0 0.00 0.00 0.00 25 1007.2
20260505201557 82 179 2.0 15.0 0.00 0.00 0.00 25 1007.3
20260505200052 82 186 2.0 8.0 0.00 0.00 0.00 25 1007.3
20260505194546 83 172 3.0 9.0 0.00 0.00 0.00 25 1007.5
20260505193044 83 215 3.0 10.0 0.00 0.00 0.00 26 1007.5
20260505191545 82 252 3.0 10.0 0.00 0.00 0.00 27 1007.6
20260505190041 83 121 4.0 10.0 0.00 0.00 0.00 27 1008.0
20260505184539 82 143 3.0 14.0 0.00 0.00 0.00 28 1008.2
20260505183037 82 107 2.0 8.0 0.00 0.00 0.00 28 1008.3
20260505181542 81 146 3.0 10.0 0.00 0.00 0.00 30 1008.4
20260505180038 80 151 1.0 8.0 0.00 0.00 0.00 32 1008.5
20260505174540 82 192 2.0 8.0 0.00 0.00 0.00 31 1008.9
20260505173030 82 159 1.0 7.0 0.00 0.00 0.00 32 1008.9
20260505171527 81 163 2.0 7.0 0.00 0.00 0.00 34 1009.1
20260505170025 81 209 2.0 8.0 0.00 0.00 0.00 33 1009.4
20260505164523 80 260 2.0 8.0 0.00 0.00 0.00 35 1009.6
20260505163029 80 210 2.0 9.0 0.00 0.00 0.00 34 1009.7
20260505161521 80 157 1.0 8.0 0.00 0.00 0.00 35 1009.9
20260505153013 77 168 2.0 6.0 0.00 0.00 0.00 38 1010.6
20260505151517 77 308 2.0 7.0 0.00 0.00 0.00 37 1010.6
20260505140110 73 146 1.0 4.0 0.00 0.00 0.00 44 1010.4
20260505124539 65 185 0.0 3.0 0.00 0.00 0.00 55 1011.1
20260505123035 64 195 0.0 2.0 0.00 0.00 0.00 57 1011.3
20260505121532 63 184 0.0 2.0 0.00 0.00 0.00 60 1011.5
20260505120028 62 188 0.0 2.0 0.00 0.00 0.00 60 1011.5
20260505114526 60 173 0.0 0.0 0.00 0.00 0.00 66 1011.4
20260505113024 59 173 0.0 0.0 0.00 0.00 0.00 67 1011.2
20260505111523 59 173 0.0 2.0 0.00 0.00 0.00 68 1011.0
20260505101518 58 170 0.0 2.0 0.00 0.00 0.00 68 1010.2
20260505100018 58 200 0.0 2.0 0.00 0.00 0.00 67 1010.1
20260505094511 59 201 0.0 2.0 0.00 0.00 0.00 67 1009.8
20260505093024 58 207 0.0 3.0 0.00 0.00 0.00 69 1009.8
20260505091510 58 200 0.0 3.0 0.00 0.00 0.00 69 1009.9
20260505090010 58 205 0.0 2.0 0.00 0.00 0.00 70 1009.7
20260505084509 57 193 0.0 2.0 0.00 0.00 0.00 73 1009.7
20260505083008 55 188 0.0 0.0 0.00 0.00 0.00 76 1009.7
20260505081507 55 188 0.0 2.0 0.00 0.00 0.00 77 1009.8
20260505080006 55 188 0.0 1.0 0.00 0.00 0.00 78 1009.7
20260505074507 55 188 0.0 0.0 0.00 0.00 0.00 78 1009.6
20260505073004 55 188 0.0 0.0 0.00 0.00 0.00 78 1009.5
20260505071503 55 188 0.0 0.0 0.00 0.00 0.00 78 1009.4
20260505070003 55 188 0.0 2.0 0.00 0.00 0.00 79 1009.5
20260505064600 55 188 0.0 0.0 0.00 0.00 0.00 79 1009.5
20260505063058 55 188 0.0 0.0 0.00 0.00 0.00 79 1009.6
20260505061602 55 188 0.0 0.0 0.00 0.00 0.00 79 1009.6
20260505060055 56 188 0.0 2.0 0.00 0.00 0.00 77 1009.6
20260505054553 56 188 0.0 2.0 0.00 0.00 0.00 77 1009.6
20260505053059 56 188 0.0 0.0 0.00 0.00 0.00 78 1009.5
20260505051548 57 188 0.0 0.0 0.00 0.00 0.00 76 1009.5
20260505041536 61 188 0.0 1.0 0.00 0.00 0.00 65 1009.7
20260505040035 61 188 0.0 2.0 0.00 0.00 0.00 64 1009.8
20260505034535 61 195 0.0 0.0 0.00 0.00 0.00 63 1009.8
20260505033054 61 195 0.0 1.0 0.00 0.00 0.00 63 1009.8
20260505031535 62 195 0.0 2.0 0.00 0.00 0.00 62 1009.9
20260505030032 62 195 0.0 2.0 0.00 0.00 0.00 61 1009.8
20260505024533 63 195 0.0 1.0 0.00 0.00 0.00 60 1009.9
20260505023031 64 195 0.0 0.0 0.00 0.00 0.00 57 1009.9
20260505021531 65 195 0.0 2.0 0.00 0.00 0.00 55 1009.9
20260505020031 66 195 0.0 2.0 0.00 0.00 0.00 55 1009.9
20260505014533 67 200 0.0 2.0 0.00 0.00 0.00 53 1009.8
20260505013029 67 160 1.0 4.0 0.00 0.00 0.00 53 1009.7
20260505011530 68 179 0.0 2.0 0.00 0.00 0.00 52 1009.4
20260505010029 68 186 0.0 3.0 0.00 0.00 0.00 51 1009.2
20260505004539 69 164 0.0 2.0 0.00 0.00 0.00 50 1009.1
20260505003026 69 167 1.0 8.0 0.00 0.00 0.00 48 1008.7
20260505001526 70 219 0.0 6.0 0.00 0.00 0.00 46 1008.8
20260505000026 71 194 1.0 4.0 0.00 0.00 0.00 45 1008.7
20260504234530 72 196 0.0 4.0 0.00 0.00 0.00 43 1008.5
20260504233024 72 170 1.0 9.0 0.00 0.00 0.00 42 1008.5
20260504231537 73 201 1.0 5.0 0.00 0.00 0.00 41 1008.4
20260504230023 74 97 1.0 5.0 0.00 0.00 0.00 39 1008.5
20260504224522 74 182 2.0 8.0 0.00 0.00 0.00 38 1008.3
20260504223022 75 217 2.0 11.0 0.00 0.00 0.00 37 1008.2
20260504221523 76 200 1.0 7.0 0.00 0.00 0.00 36 1008.1
20260504220020 77 225 1.0 6.0 0.00 0.00 0.00 35 1008.0
20260504214521 77 94 1.0 8.0 0.00 0.00 0.00 35 1008.0
20260504213018 77 227 1.0 5.0 0.00 0.00 0.00 35 1007.9
20260504211516 77 165 1.0 8.0 0.00 0.00 0.00 34 1008.1
20260504210016 77 61 4.0 10.0 0.00 0.00 0.00 34 1008.0